contact:dominique.lefevre@mio.osupytheas.fr, maurice.libes@osupytheas.fr, didier.mallarino@osupytheas.fr
Project:EMSO http://www.emso-fr.org/EMSO-France
Depth: 2436.0 m
Title:EMSO Ligure Ouest : Data MII capteur AQUADOPP
Date,Latitude,Longitude,X_East,Y_North,Z_Up,Amplitude_X,Amplitude_Y,Amplitude_Z,Batterie,SoundSpeed,Heading,Pitch,Roll,Pressure,TIS,Speed,Direction
, degrees North, degrees East, m.s-1, m.s-1,m.s-1, 1, 1, 1, Volt, m.s-1, degree, degree, degree, dbar, degree_C, m.s-1, degree
2021-01-24T00:04:03,42.805,6.029,-0.015,-0.039,0.009,111.0,110.0,106.0,13.4,1505.2,325.0,-0.7,1.8,2470.375,13.3,0.041,201.0
2021-01-24T00:07:03,42.805,6.029,-0.024,-0.069,-0.019,110.0,110.0,106.0,13.4,1505.3,326.2,-0.7,1.9,2470.363,13.31,0.073,199.2
2021-01-24T00:10:03,42.805,6.029,-0.009,-0.052,-0.021,111.0,110.0,106.0,13.3,1505.3,325.6,-0.7,1.8,2470.365,13.31,0.052,189.8
2021-01-24T00:13:03,42.805,6.029,-0.027,-0.04,-0.021,110.0,111.0,107.0,13.4,1505.3,326.6,-0.7,1.8,2470.384,13.32,0.048,214.0
2021-01-24T00:16:03,42.805,6.029,-0.037,-0.038,0.009,111.0,109.0,106.0,13.4,1505.3,324.5,-0.7,1.8,2470.348,13.32,0.053,224.2
2021-01-24T00:19:03,42.805,6.029,-0.013,-0.038,0.027,111.0,109.0,106.0,13.4,1505.3,324.1,-0.7,1.8,2470.364,13.32,0.04,198.9
2021-01-24T00:22:03,42.805,6.029,-0.011,-0.034,-0.001,111.0,111.0,106.0,13.4,1505.3,325.1,-0.7,1.8,2470.351,13.32,0.035,197.9
2021-01-24T00:25:03,42.805,6.029,-0.032,-0.05,-0.009,111.0,111.0,106.0,13.4,1505.3,327.0,-0.8,1.8,2470.3,13.32,0.059,212.6
2021-01-24T00:28:03,42.805,6.029,-0.024,-0.034,-0.001,111.0,110.0,106.0,13.4,1505.3,327.5,-0.7,1.8,2470.347,13.33,0.041,215.2
2021-01-24T00:31:03,42.805,6.029,-0.038,-0.01,-0.021,110.0,111.0,107.0,13.3,1505.3,326.4,-0.7,1.8,2470.354,13.32,0.039,255.3
2021-01-24T00:34:03,42.805,6.029,-0.051,-0.04,-0.032,111.0,111.0,107.0,13.4,1505.3,327.5,-0.6,1.8,2470.334,13.33,0.064,231.9
2021-01-24T00:37:03,42.805,6.029,-0.029,-0.021,-0.05,110.0,111.0,105.0,13.4,1505.3,324.2,-0.7,1.8,2470.304,13.33,0.035,234.1
2021-01-24T00:40:03,42.805,6.029,-0.025,-0.027,0.005,110.0,110.0,107.0,13.4,1505.3,326.3,-0.7,1.8,2470.322,13.33,0.036,222.8
2021-01-24T00:43:03,42.805,6.029,-0.027,-0.022,0.038,110.0,110.0,105.0,13.4,1505.3,326.0,-0.6,1.8,2470.307,13.32,0.034,230.8
2021-01-24T00:46:03,42.805,6.029,-0.007,-0.04,0.024,110.0,111.0,106.0,13.4,1505.3,323.3,-0.7,1.8,2470.327,13.32,0.04,189.9
2021-01-24T00:49:03,42.805,6.029,-0.042,-0.045,0.008,110.0,109.0,106.0,13.4,1505.3,327.2,-0.7,1.8,2470.354,13.32,0.061,223.0
2021-01-24T00:52:03,42.805,6.029,-0.025,-0.046,0.011,111.0,111.0,107.0,13.4,1505.3,325.0,-0.7,1.8,2470.357,13.32,0.052,208.5
2021-01-24T00:55:03,42.805,6.029,-0.037,-0.02,-0.002,111.0,109.0,107.0,13.3,1505.3,326.9,-0.7,1.8,2470.347,13.32,0.042,241.6
2021-01-24T00:58:03,42.805,6.029,-0.044,-0.042,-0.008,111.0,110.0,106.0,13.4,1505.3,322.8,-0.7,1.8,2470.336,13.32,0.06,226.3
2021-01-24T01:04:03,42.805,6.029,-0.022,-0.03,-0.016,111.0,112.0,107.0,13.4,1505.3,325.1,-0.7,1.8,2470.392,13.31,0.037,216.3
2021-01-24T01:07:03,42.805,6.029,-0.014,-0.031,0.012,111.0,110.0,106.0,13.3,1505.3,326.1,-0.7,1.9,2470.372,13.31,0.034,204.3
2021-01-24T01:10:03,42.805,6.029,-0.021,-0.039,-0.006,111.0,111.0,107.0,13.4,1505.3,323.0,-0.7,1.9,2470.332,13.32,0.044,208.3
2021-01-24T01:13:03,42.805,6.029,-0.064,-0.029,-0.003,111.0,111.0,107.0,13.4,1505.3,324.8,-0.7,1.8,2470.395,13.32,0.07,245.6
2021-01-24T01:16:03,42.805,6.029,-0.04,-0.046,-0.001,109.0,110.0,106.0,13.4,1505.3,326.7,-0.7,1.8,2470.38,13.32,0.06,221.0
2021-01-24T01:19:03,42.805,6.029,-0.023,-0.055,0.01,111.0,111.0,106.0,13.4,1505.3,325.9,-0.7,1.8,2470.381,13.32,0.059,202.7
2021-01-24T01:22:03,42.805,6.029,-0.021,-0.041,0.032,110.0,111.0,105.0,13.3,1505.3,324.8,-0.7,1.8,2470.378,13.32,0.046,207.1
2021-01-24T01:25:03,42.805,6.029,-0.04,-0.009,-0.022,110.0,110.0,106.0,13.4,1505.3,327.6,-0.7,1.8,2470.358,13.32,0.041,257.3
2021-01-24T01:28:03,42.805,6.029,-0.024,-0.04,0.046,110.0,110.0,106.0,13.3,1505.3,324.9,-0.7,1.8,2470.402,13.32,0.046,211.0
2021-01-24T01:31:03,42.805,6.029,-0.016,-0.037,0.003,110.0,110.0,106.0,13.3,1505.3,327.3,-0.7,1.8,2470.344,13.32,0.04,203.4
2021-01-24T01:34:03,42.805,6.029,-0.028,-0.049,0.044,111.0,109.0,108.0,13.4,1505.3,324.1,-0.7,1.8,2470.34,13.32,0.056,209.7
2021-01-24T01:37:03,42.805,6.029,-0.037,-0.035,-0.024,110.0,110.0,106.0,13.4,1505.3,324.5,-0.7,1.8,2470.352,13.32,0.05,226.6
2021-01-24T01:40:03,42.805,6.029,-0.03,-0.033,-0.004,110.0,111.0,106.0,13.3,1505.3,327.9,-0.7,1.8,2470.312,13.32,0.044,222.3
2021-01-24T01:43:03,42.805,6.029,-0.043,-0.031,-0.016,110.0,111.0,106.0,13.4,1505.3,327.7,-0.7,1.8,2470.368,13.32,0.053,234.2
2021-01-24T01:46:03,42.805,6.029,-0.021,-0.034,0.029,111.0,110.0,105.0,13.4,1505.3,326.6,-0.7,1.8,2470.397,13.32,0.039,211.7
2021-01-24T01:49:03,42.805,6.029,-0.036,-0.056,0.001,110.0,109.0,107.0,13.3,1505.3,323.9,-0.7,1.8,2470.382,13.32,0.066,212.7
2021-01-24T01:52:03,42.805,6.029,-0.023,-0.017,0.026,113.0,110.0,105.0,13.3,1505.3,326.9,-0.7,1.8,2470.368,13.33,0.028,233.5
2021-01-24T01:55:03,42.805,6.029,-0.014,-0.035,-0.01,111.0,110.0,107.0,13.4,1505.3,325.2,-0.7,1.8,2470.364,13.33,0.037,201.8
2021-01-24T01:58:03,42.805,6.029,-0.024,-0.031,-0.035,109.0,110.0,107.0,13.3,1505.3,326.7,-0.7,1.8,2470.375,13.33,0.039,217.7
2021-01-24T02:04:03,42.805,6.029,-0.012,-0.067,-0.021,110.0,112.0,107.0,13.4,1505.3,326.7,-0.8,1.8,2470.431,13.31,0.068,190.2
2021-01-24T02:07:03,42.805,6.029,-0.023,-0.026,0.005,112.0,111.0,108.0,13.4,1505.3,326.3,-0.7,1.9,2470.395,13.31,0.034,221.5
2021-01-24T02:10:03,42.805,6.029,-0.041,-0.022,0.002,111.0,110.0,107.0,13.4,1505.3,326.8,-0.7,1.8,2470.399,13.32,0.046,241.8
2021-01-24T02:13:03,42.805,6.029,-0.015,-0.017,-0.007,112.0,110.0,106.0,13.4,1505.3,325.6,-0.7,1.8,2470.385,13.32,0.022,221.4
2021-01-24T02:16:03,42.805,6.029,-0.022,-0.025,-0.006,111.0,110.0,107.0,13.4,1505.3,326.5,-0.7,1.8,2470.412,13.32,0.033,221.3
2021-01-24T02:19:03,42.805,6.029,-0.032,-0.036,-0.002,111.0,110.0,106.0,13.4,1505.3,323.8,-0.7,1.8,2470.411,13.32,0.048,221.6
2021-01-24T02:22:03,42.805,6.029,-0.015,-0.032,-0.021,111.0,110.0,105.0,13.4,1505.3,323.3,-0.7,1.8,2470.386,13.33,0.035,205.1
2021-01-24T02:25:03,42.805,6.029,-0.037,-0.025,-0.018,110.0,111.0,106.0,13.3,1505.3,327.4,-0.7,1.8,2470.362,13.33,0.044,236.0
2021-01-24T02:28:03,42.805,6.029,-0.034,-0.032,-0.01,111.0,110.0,106.0,13.4,1505.3,326.7,-0.7,1.8,2470.358,13.33,0.046,226.7
2021-01-24T02:31:03,42.805,6.029,-0.006,-0.037,-0.006,110.0,109.0,105.0,13.3,1505.3,328.2,-0.7,1.8,2470.379,13.33,0.037,189.2
2021-01-24T02:34:03,42.805,6.029,0.001,-0.034,0.0,110.0,111.0,107.0,13.3,1505.3,325.3,-0.7,1.8,2470.44,13.33,0.034,178.3
2021-01-24T02:37:03,42.805,6.029,-0.006,-0.037,-0.012,110.0,111.0,105.0,13.4,1505.3,326.0,-0.7,1.8,2470.399,13.33,0.037,189.2
2021-01-24T02:40:03,42.805,6.029,-0.018,-0.013,0.021,110.0,111.0,106.0,13.4,1505.3,326.5,-0.6,1.8,2470.407,13.33,0.022,234.2
2021-01-24T02:43:03,42.805,6.029,-0.024,-0.036,-0.002,110.0,110.0,107.0,13.3,1505.3,327.1,-0.7,1.8,2470.368,13.33,0.043,213.7
2021-01-24T02:46:03,42.805,6.029,-0.004,-0.028,-0.016,110.0,110.0,106.0,13.3,1505.3,324.5,-0.7,1.8,2470.4,13.33,0.028,188.1
2021-01-24T02:49:03,42.805,6.029,-0.002,-0.021,0.021,112.0,111.0,107.0,13.4,1505.3,325.6,-0.7,1.8,2470.346,13.33,0.021,185.4
2021-01-24T02:52:03,42.805,6.029,0.0,-0.051,-0.009,111.0,111.0,106.0,13.3,1505.3,324.6,-0.7,1.8,2470.385,13.33,0.051,180.0
2021-01-24T02:55:03,42.805,6.029,0.009,-0.02,-0.008,111.0,110.0,106.0,13.4,1505.3,325.0,-0.7,1.8,2470.4,13.33,0.021,155.8
2021-01-24T02:58:03,42.805,6.029,-0.011,-0.047,-0.002,111.0,110.0,106.0,13.4,1505.3,326.6,-0.7,1.8,2470.424,13.33,0.048,193.2
2021-01-24T03:04:03,42.805,6.029,-0.037,-0.043,-0.026,112.0,111.0,107.0,13.3,1505.3,326.3,-0.8,1.8,2470.397,13.31,0.056,220.7
2021-01-24T03:07:03,42.805,6.029,-0.019,-0.03,-0.05,112.0,112.0,106.0,13.4,1505.3,327.1,-0.8,1.8,2470.443,13.31,0.035,212.3
2021-01-24T03:10:03,42.805,6.029,-0.033,-0.041,-0.002,111.0,110.0,107.0,13.4,1505.3,326.4,-0.7,1.8,2470.445,13.32,0.052,218.8
2021-01-24T03:13:03,42.805,6.029,-0.017,-0.046,-0.004,111.0,110.0,106.0,13.3,1505.3,324.8,-0.7,1.8,2470.445,13.32,0.049,200.3
2021-01-24T03:16:03,42.805,6.029,-0.003,-0.02,0.006,112.0,111.0,106.0,13.4,1505.3,327.2,-0.7,1.8,2470.399,13.33,0.02,188.5
2021-01-24T03:19:03,42.805,6.029,-0.026,-0.032,0.003,111.0,111.0,106.0,13.4,1505.3,325.1,-0.7,1.8,2470.431,13.33,0.041,219.1
2021-01-24T03:22:03,42.805,6.029,-0.04,-0.038,-0.053,111.0,111.0,107.0,13.4,1505.3,326.9,-0.7,1.9,2470.417,13.33,0.055,226.5
2021-01-24T03:25:03,42.805,6.029,-0.044,-0.023,-0.02,111.0,112.0,107.0,13.3,1505.3,324.4,-0.8,1.8,2470.414,13.33,0.049,242.4
2021-01-24T03:28:03,42.805,6.029,-0.025,-0.035,-0.039,111.0,113.0,107.0,13.3,1505.3,327.9,-0.7,1.8,2470.427,13.33,0.043,215.5
2021-01-24T03:31:03,42.805,6.029,-0.009,-0.035,-0.005,112.0,112.0,107.0,13.4,1505.3,324.3,-0.7,1.8,2470.412,13.33,0.036,194.4
2021-01-24T03:34:03,42.805,6.029,-0.002,-0.021,-0.021,110.0,111.0,107.0,13.3,1505.3,325.8,-0.7,1.8,2470.409,13.33,0.021,185.4
2021-01-24T03:37:03,42.805,6.029,-0.021,-0.039,0.031,112.0,112.0,106.0,13.4,1505.3,324.7,-0.7,1.9,2470.416,13.33,0.044,208.3
2021-01-24T03:40:03,42.805,6.029,-0.02,-0.017,-0.013,112.0,111.0,105.0,13.4,1505.3,327.1,-0.7,1.8,2470.424,13.33,0.026,229.6
2021-01-24T03:43:03,42.805,6.029,-0.017,-0.034,-0.002,112.0,111.0,106.0,13.3,1505.3,326.2,-0.7,1.9,2470.455,13.33,0.038,206.6
2021-01-24T03:46:03,42.805,6.029,-0.006,-0.033,0.0,112.0,112.0,107.0,13.4,1505.3,327.5,-0.7,1.8,2470.371,13.33,0.033,190.3
2021-01-24T03:49:03,42.805,6.029,-0.009,-0.023,-0.014,111.0,111.0,105.0,13.4,1505.3,323.5,-0.7,1.8,2470.383,13.33,0.024,201.4
2021-01-24T03:52:03,42.805,6.029,-0.014,-0.028,-0.038,112.0,112.0,106.0,13.4,1505.3,324.5,-0.7,1.8,2470.401,13.33,0.031,206.6
2021-01-24T03:55:03,42.805,6.029,-0.007,-0.04,-0.028,112.0,111.0,106.0,13.4,1505.3,325.7,-0.7,1.8,2470.439,13.33,0.04,189.9
2021-01-24T03:58:03,42.805,6.029,-0.008,-0.025,-0.006,111.0,112.0,106.0,13.4,1505.3,324.5,-0.7,1.8,2470.432,13.33,0.026,197.7
2021-01-24T04:04:03,42.805,6.029,-0.012,-0.039,0.004,110.0,111.0,107.0,13.4,1505.3,326.5,-0.7,1.8,2470.486,13.31,0.04,197.1
2021-01-24T04:07:03,42.805,6.029,-0.026,-0.02,-0.023,111.0,109.0,107.0,13.4,1505.3,326.7,-0.7,1.8,2470.402,13.31,0.032,232.4
2021-01-24T04:10:03,42.805,6.029,-0.017,-0.04,-0.013,111.0,111.0,107.0,13.3,1505.3,326.8,-0.7,1.8,2470.396,13.32,0.043,203.0
2021-01-24T04:13:03,42.805,6.029,-0.03,-0.044,-0.023,111.0,111.0,106.0,13.4,1505.3,326.6,-0.7,1.8,2470.406,13.32,0.053,214.3
2021-01-24T04:16:03,42.805,6.029,-0.014,-0.042,-0.007,111.0,109.0,107.0,13.3,1505.3,325.7,-0.7,1.8,2470.429,13.32,0.044,198.4
2021-01-24T04:19:03,42.805,6.029,-0.037,-0.027,0.014,111.0,111.0,107.0,13.3,1505.3,327.5,-0.7,1.8,2470.46,13.32,0.045,233.9
2021-01-24T04:22:03,42.805,6.029,0.003,-0.031,0.008,110.0,111.0,106.0,13.4,1505.3,324.3,-0.7,1.8,2470.453,13.32,0.031,174.5
2021-01-24T04:25:03,42.805,6.029,0.006,-0.017,-0.027,110.0,111.0,106.0,13.4,1505.3,327.1,-0.7,1.8,2470.448,13.32,0.018,160.6
2021-01-24T04:28:03,42.805,6.029,-0.007,-0.028,-0.007,111.0,112.0,108.0,13.3,1505.3,323.7,-0.7,1.8,2470.436,13.32,0.028,194.0
2021-01-24T04:31:03,42.805,6.029,-0.008,-0.016,0.002,112.0,113.0,106.0,13.3,1505.3,326.6,-0.7,1.8,2470.436,13.32,0.017,206.6
2021-01-24T04:34:03,42.805,6.029,-0.018,-0.031,0.005,110.0,113.0,107.0,13.3,1505.3,324.2,-0.7,1.8,2470.421,13.33,0.035,210.1
2021-01-24T04:37:03,42.805,6.029,-0.041,-0.022,0.002,110.0,111.0,107.0,13.3,1505.3,328.1,-0.7,1.8,2470.447,13.33,0.046,241.8
2021-01-24T04:40:03,42.805,6.029,-0.015,-0.031,-0.022,111.0,110.0,107.0,13.4,1505.3,326.0,-0.7,1.8,2470.404,13.33,0.034,205.8
2021-01-24T04:43:03,42.805,6.029,-0.002,-0.024,0.0,111.0,111.0,105.0,13.4,1505.3,326.0,-0.7,1.8,2470.43,13.33,0.024,184.8
2021-01-24T04:46:03,42.805,6.029,-0.028,-0.015,-0.01,111.0,112.0,106.0,13.4,1505.3,324.8,-0.7,1.8,2470.434,13.33,0.031,241.8
2021-01-24T04:49:03,42.805,6.029,-0.013,-0.019,-0.014,110.0,111.0,108.0,13.4,1505.3,328.2,-0.7,1.8,2470.408,13.33,0.023,214.4
2021-01-24T04:52:03,42.805,6.029,-0.015,-0.026,0.0,111.0,110.0,107.0,13.4,1505.3,327.9,-0.7,1.8,2470.382,13.33,0.03,210.0
2021-01-24T04:55:03,42.805,6.029,-0.019,-0.035,0.014,111.0,112.0,106.0,13.3,1505.3,328.1,-0.7,1.8,2470.416,13.33,0.039,208.5
2021-01-24T04:58:03,42.805,6.029,-0.025,-0.032,-0.008,111.0,112.0,107.0,13.4,1505.3,323.8,-0.7,1.8,2470.372,13.33,0.04,218.0
2021-01-24T05:04:03,42.805,6.029,-0.032,-0.026,-0.009,111.0,113.0,107.0,13.4,1505.3,326.3,-0.7,1.8,2470.444,13.31,0.041,230.9
2021-01-24T05:07:03,42.805,6.029,-0.003,-0.015,0.021,111.0,112.0,107.0,13.4,1505.3,324.1,-0.7,1.8,2470.442,13.31,0.015,191.3
2021-01-24T05:10:03,42.805,6.029,-0.017,-0.027,0.0,111.0,112.0,106.0,13.3,1505.3,326.5,-0.7,1.8,2470.449,13.32,0.031,212.2
2021-01-24T05:13:03,42.805,6.029,-0.012,-0.03,-0.008,111.0,112.0,107.0,13.4,1505.3,327.5,-0.7,1.8,2470.439,13.32,0.032,201.8
2021-01-24T05:16:03,42.805,6.029,0.0,-0.032,0.019,112.0,111.0,107.0,13.3,1505.3,327.4,-0.7,1.8,2470.445,13.33,0.032,180.0
2021-01-24T05:19:03,42.805,6.029,-0.009,-0.041,-0.007,111.0,112.0,105.0,13.3,1505.3,328.3,-0.8,1.8,2470.433,13.33,0.041,192.4
2021-01-24T05:22:03,42.805,6.029,-0.03,-0.023,0.007,112.0,112.0,106.0,13.4,1505.3,328.4,-0.7,1.8,2470.44,13.33,0.037,232.5
2021-01-24T05:25:03,42.805,6.029,-0.037,-0.021,-0.034,112.0,112.0,107.0,13.4,1505.3,326.0,-0.7,1.8,2470.426,13.33,0.042,240.4
2021-01-24T05:28:03,42.805,6.029,-0.029,-0.048,0.015,110.0,111.0,107.0,13.4,1505.3,325.6,-0.7,1.8,2470.473,13.33,0.056,211.1
2021-01-24T05:31:03,42.805,6.029,-0.022,0.006,-0.014,111.0,111.0,107.0,13.4,1505.3,325.2,-0.7,1.8,2470.439,13.33,0.022,285.3
2021-01-24T05:34:03,42.805,6.029,-0.031,-0.024,-0.026,111.0,112.0,106.0,13.3,1505.3,325.2,-0.7,1.9,2470.426,13.33,0.039,232.3
2021-01-24T05:37:03,42.805,6.029,-0.008,-0.035,-0.009,111.0,112.0,107.0,13.4,1505.3,326.6,-0.7,1.8,2470.433,13.33,0.035,192.9
2021-01-24T05:40:03,42.805,6.029,-0.01,-0.022,-0.02,111.0,112.0,106.0,13.4,1505.3,326.3,-0.7,1.8,2470.444,13.33,0.024,204.4
2021-01-24T05:43:03,42.805,6.029,-0.037,-0.032,0.004,110.0,111.0,106.0,13.4,1505.3,323.4,-0.7,1.8,2470.439,13.33,0.048,229.1
2021-01-24T05:46:03,42.805,6.029,-0.025,-0.008,0.011,112.0,110.0,106.0,13.4,1505.3,326.8,-0.7,1.8,2470.4,13.33,0.026,252.3
2021-01-24T05:49:03,42.805,6.029,-0.044,-0.034,-0.027,110.0,111.0,105.0,13.4,1505.3,324.1,-0.7,1.8,2470.427,13.33,0.055,232.3
2021-01-24T05:52:03,42.805,6.029,-0.023,-0.036,-0.01,112.0,112.0,107.0,13.4,1505.3,327.3,-0.7,1.8,2470.415,13.33,0.042,212.6
2021-01-24T05:55:03,42.805,6.029,-0.028,-0.024,0.0,111.0,110.0,106.0,13.4,1505.3,322.8,-0.7,1.8,2470.436,13.33,0.036,229.4
2021-01-24T05:58:03,42.805,6.029,-0.041,-0.04,0.0,110.0,112.0,106.0,13.4,1505.3,326.7,-0.7,1.8,2470.436,13.33,0.057,225.7
2021-01-24T06:04:03,42.805,6.029,-0.024,-0.011,-0.015,112.0,111.0,105.0,13.4,1505.3,325.8,-0.7,1.8,2470.45,13.31,0.026,245.4
2021-01-24T06:07:03,42.805,6.029,-0.017,-0.025,-0.013,111.0,111.0,106.0,13.4,1505.3,327.6,-0.7,1.8,2470.453,13.31,0.03,214.2
2021-01-24T06:10:03,42.805,6.029,-0.018,-0.015,-0.012,111.0,112.0,107.0,13.4,1505.3,323.0,-0.7,1.8,2470.464,13.32,0.023,230.2
2021-01-24T06:13:03,42.805,6.029,-0.022,-0.044,0.006,110.0,111.0,108.0,13.4,1505.3,325.1,-0.7,1.8,2470.457,13.32,0.049,206.6
2021-01-24T06:16:03,42.805,6.029,-0.01,-0.023,-0.003,111.0,111.0,106.0,13.4,1505.3,324.9,-0.7,1.8,2470.438,13.32,0.025,203.5
2021-01-24T06:19:03,42.805,6.029,-0.026,-0.002,-0.011,111.0,113.0,106.0,13.4,1505.3,327.7,-0.7,1.8,2470.403,13.33,0.026,265.6
2021-01-24T06:22:03,42.805,6.029,0.003,-0.032,0.021,111.0,112.0,108.0,13.4,1505.3,326.1,-0.7,1.8,2470.47,13.33,0.032,174.6
2021-01-24T06:25:03,42.805,6.029,-0.028,-0.014,-0.011,112.0,111.0,106.0,13.4,1505.3,325.8,-0.7,1.8,2470.421,13.33,0.031,243.4
2021-01-24T06:28:03,42.805,6.029,-0.055,-0.025,-0.014,111.0,111.0,105.0,13.4,1505.3,324.6,-0.7,1.8,2470.433,13.33,0.06,245.6
2021-01-24T06:31:03,42.805,6.029,-0.023,-0.014,-0.017,110.0,111.0,106.0,13.4,1505.3,326.0,-0.7,1.8,2470.421,13.33,0.026,238.7
2021-01-24T06:34:03,42.805,6.029,-0.039,-0.034,-0.021,110.0,111.0,106.0,13.4,1505.3,323.4,-0.7,1.8,2470.407,13.33,0.051,228.9
2021-01-24T06:37:03,42.805,6.029,-0.026,-0.017,-0.017,110.0,111.0,107.0,13.4,1505.3,326.4,-0.7,1.8,2470.437,13.33,0.031,236.8
2021-01-24T06:40:03,42.805,6.029,-0.04,-0.015,-0.04,110.0,111.0,106.0,13.4,1505.3,328.0,-0.7,1.8,2470.471,13.33,0.042,249.4
2021-01-24T06:43:03,42.805,6.029,-0.018,-0.033,0.003,110.0,112.0,106.0,13.4,1505.3,323.1,-0.7,1.9,2470.436,13.33,0.037,208.6
2021-01-24T06:46:03,42.805,6.029,-0.018,-0.019,0.035,111.0,113.0,106.0,13.3,1505.3,324.5,-0.7,1.8,2470.458,13.33,0.026,223.5
2021-01-24T06:49:03,42.805,6.029,-0.043,-0.04,-0.029,110.0,112.0,106.0,13.4,1505.3,327.7,-0.7,1.8,2470.407,13.33,0.058,227.1
2021-01-24T06:52:03,42.805,6.029,-0.009,-0.009,-0.003,111.0,111.0,105.0,13.3,1505.3,325.3,-0.7,1.8,2470.438,13.33,0.012,225.0
2021-01-24T06:55:03,42.805,6.029,-0.02,0.0,0.028,111.0,113.0,107.0,13.4,1505.3,328.0,-0.7,1.8,2470.395,13.33,0.02,270.0
2021-01-24T06:58:03,42.805,6.029,-0.027,-0.002,-0.01,112.0,111.0,107.0,13.4,1505.3,324.1,-0.7,1.8,2470.427,13.33,0.027,265.8
2021-01-24T07:04:03,42.805,6.029,-0.01,-0.025,-0.031,112.0,111.0,105.0,13.4,1505.3,322.8,-0.7,1.8,2470.459,13.31,0.026,201.8
2021-01-24T07:07:03,42.805,6.029,-0.009,-0.012,-0.008,111.0,111.0,107.0,13.4,1505.3,324.2,-0.7,1.8,2470.415,13.32,0.015,216.9
2021-01-24T07:13:03,42.805,6.029,-0.038,-0.012,-0.005,110.0,112.0,107.0,13.4,1505.3,328.1,-0.8,1.8,2470.479,13.31,0.039,252.5
2021-01-24T07:16:03,42.805,6.029,-0.007,-0.014,0.005,112.0,113.0,107.0,13.4,1505.3,323.6,-0.7,1.8,2470.505,13.31,0.015,206.6
2021-01-24T07:19:03,42.805,6.029,-0.045,-0.019,-0.002,112.0,115.0,106.0,13.4,1505.3,326.7,-0.7,1.8,2470.466,13.32,0.048,247.1
2021-01-24T07:22:03,42.805,6.029,-0.022,0.0,-0.022,110.0,112.0,107.0,13.4,1505.3,324.0,-0.7,1.8,2470.439,13.32,0.022,270.0
2021-01-24T07:25:03,42.805,6.029,-0.004,0.001,0.013,111.0,112.0,107.0,13.4,1505.3,325.6,-0.7,1.8,2470.461,13.32,0.004,284.0
2021-01-24T07:28:03,42.805,6.029,-0.026,-0.002,-0.007,110.0,111.0,107.0,13.4,1505.3,326.6,-0.7,1.8,2470.438,13.33,0.026,265.6
2021-01-24T07:31:03,42.805,6.029,-0.015,-0.009,-0.019,112.0,113.0,106.0,13.4,1505.3,327.3,-0.7,1.8,2470.471,13.33,0.017,239.0
2021-01-24T07:34:03,42.805,6.029,-0.022,-0.001,-0.026,111.0,113.0,107.0,13.4,1505.3,327.2,-0.7,1.8,2470.446,13.33,0.022,267.4
2021-01-24T07:37:03,42.805,6.029,-0.043,-0.005,-0.024,111.0,112.0,107.0,13.4,1505.3,328.0,-0.7,1.8,2470.429,13.33,0.043,263.4
2021-01-24T07:40:03,42.805,6.029,-0.033,0.01,-0.038,111.0,111.0,106.0,13.3,1505.3,327.5,-0.7,1.8,2470.43,13.33,0.034,286.9
2021-01-24T07:43:03,42.805,6.029,-0.032,-0.021,-0.031,112.0,112.0,106.0,13.3,1505.3,325.1,-0.7,1.8,2470.43,13.33,0.038,236.7
2021-01-24T07:46:03,42.805,6.029,-0.044,-0.01,0.003,110.0,113.0,106.0,13.4,1505.3,324.2,-0.7,1.8,2470.412,13.33,0.045,257.2
2021-01-24T07:49:03,42.805,6.029,-0.025,-0.005,-0.029,112.0,114.0,107.0,13.4,1505.3,324.0,-0.7,1.8,2470.405,13.33,0.025,258.7
2021-01-24T07:52:03,42.805,6.029,-0.045,0.011,-0.023,111.0,112.0,107.0,13.4,1505.3,324.5,-0.7,1.8,2470.413,13.33,0.046,283.7
2021-01-24T07:55:03,42.805,6.029,-0.017,-0.026,-0.006,112.0,113.0,107.0,13.4,1505.3,324.2,-0.7,1.9,2470.407,13.33,0.031,213.2
2021-01-24T07:58:03,42.805,6.029,-0.053,0.001,-0.001,113.0,112.0,107.0,13.4,1505.3,326.5,-0.7,1.8,2470.393,13.33,0.053,271.1
2021-01-24T08:04:03,42.805,6.029,-0.014,-0.016,0.002,113.0,112.0,108.0,13.3,1505.3,324.5,-0.7,1.8,2470.464,13.32,0.021,221.2
2021-01-24T08:07:03,42.805,6.029,-0.05,0.008,-0.033,111.0,113.0,108.0,13.4,1505.3,324.7,-0.7,1.8,2470.463,13.32,0.05,279.1
2021-01-24T08:10:03,42.805,6.029,-0.037,0.001,-0.003,111.0,114.0,107.0,13.4,1505.3,326.5,-0.7,1.8,2470.443,13.33,0.037,271.5
2021-01-24T08:13:03,42.805,6.029,-0.028,-0.005,-0.021,111.0,113.0,107.0,13.3,1505.3,326.7,-0.7,1.8,2470.433,13.33,0.028,259.9
2021-01-24T08:16:03,42.805,6.029,-0.025,0.0,0.001,111.0,113.0,107.0,13.3,1505.3,324.2,-0.7,1.9,2470.465,13.33,0.025,270.0
2021-01-24T08:19:03,42.805,6.029,-0.024,-0.007,-0.033,111.0,112.0,108.0,13.4,1505.3,328.2,-0.7,1.8,2470.427,13.33,0.025,253.7
2021-01-24T08:22:03,42.805,6.029,-0.028,-0.008,0.0,110.0,113.0,107.0,13.4,1505.3,323.1,-0.7,1.8,2470.403,13.33,0.029,254.1
2021-01-24T08:25:03,42.805,6.029,-0.022,0.0,0.002,110.0,111.0,107.0,13.4,1505.3,324.2,-0.7,1.8,2470.427,13.33,0.022,270.0
2021-01-24T08:28:03,42.805,6.029,-0.017,-0.003,0.001,110.0,113.0,107.0,13.4,1505.3,324.4,-0.7,1.8,2470.42,13.33,0.017,260.0
2021-01-24T08:31:03,42.805,6.029,0.01,0.008,0.037,112.0,113.0,105.0,13.4,1505.3,325.8,-0.7,1.8,2470.423,13.33,0.012,51.3
2021-01-24T08:34:03,42.805,6.029,0.011,-0.017,0.025,111.0,113.0,106.0,13.4,1505.3,324.3,-0.7,1.8,2470.418,13.33,0.02,147.1
2021-01-24T08:37:03,42.805,6.029,-0.023,0.0,0.017,110.0,114.0,107.0,13.3,1505.3,324.8,-0.7,1.8,2470.394,13.33,0.023,270.0
2021-01-24T08:40:03,42.805,6.029,-0.007,0.021,-0.006,111.0,114.0,108.0,13.4,1505.3,324.1,-0.7,1.8,2470.405,13.33,0.022,341.6
2021-01-24T08:43:03,42.805,6.029,-0.018,0.008,-0.023,109.0,113.0,107.0,13.4,1505.3,324.7,-0.7,1.8,2470.398,13.33,0.019,294.0
2021-01-24T08:46:03,42.805,6.029,-0.04,0.008,0.004,111.0,115.0,106.0,13.3,1505.3,324.9,-0.7,1.8,2470.39,13.33,0.04,281.3
2021-01-24T08:49:03,42.805,6.029,-0.02,0.023,0.002,110.0,113.0,106.0,13.3,1505.3,324.8,-0.7,1.8,2470.46,13.33,0.03,319.0
2021-01-24T08:52:03,42.805,6.029,-0.025,0.006,0.01,111.0,113.0,106.0,13.4,1505.3,325.2,-0.7,1.8,2470.4,13.33,0.025,283.5
2021-01-24T08:55:03,42.805,6.029,-0.028,-0.015,0.017,111.0,113.0,108.0,13.4,1505.3,323.2,-0.7,1.8,2470.386,13.33,0.031,241.8
2021-01-24T08:58:03,42.805,6.029,0.0,0.013,0.028,112.0,112.0,107.0,13.3,1505.3,324.6,-0.7,1.8,2470.404,13.33,0.013,0.0
2021-01-24T09:04:03,42.805,6.029,0.007,-0.001,-0.006,112.0,112.0,106.0,13.3,1505.3,323.2,-0.7,1.8,2470.489,13.31,0.007,98.1
2021-01-24T09:07:03,42.805,6.029,-0.016,0.007,-0.001,111.0,113.0,107.0,13.4,1505.3,326.8,-0.7,1.8,2470.435,13.32,0.017,293.6
2021-01-24T09:10:03,42.805,6.029,-0.01,0.001,-0.018,111.0,112.0,106.0,13.4,1505.3,326.8,-0.7,1.8,2470.44,13.32,0.01,275.7
2021-01-24T09:13:03,42.805,6.029,-0.018,-0.004,0.006,111.0,113.0,107.0,13.4,1505.3,326.4,-0.8,1.8,2470.425,13.33,0.018,257.5
2021-01-24T09:16:03,42.805,6.029,-0.002,0.015,0.031,112.0,112.0,107.0,13.4,1505.3,328.0,-0.7,1.8,2470.425,13.33,0.015,352.4
2021-01-24T09:19:03,42.805,6.029,-0.033,0.001,-0.004,111.0,112.0,107.0,13.3,1505.3,324.4,-0.7,1.9,2470.381,13.33,0.033,271.7
2021-01-24T09:22:03,42.805,6.029,-0.02,0.0,0.023,112.0,111.0,107.0,13.4,1505.3,326.6,-0.7,1.8,2470.409,13.33,0.02,270.0
2021-01-24T09:25:03,42.805,6.029,-0.025,0.012,0.022,110.0,112.0,107.0,13.4,1505.3,324.6,-0.7,1.8,2470.409,13.33,0.027,295.6
2021-01-24T09:28:03,42.805,6.029,0.003,-0.016,0.0,111.0,113.0,106.0,13.4,1505.3,328.1,-0.7,1.8,2470.433,13.33,0.016,169.4
2021-01-24T09:31:03,42.805,6.029,-0.001,-0.003,-0.022,111.0,111.0,107.0,13.3,1505.3,325.7,-0.7,1.8,2470.423,13.33,0.003,198.4
2021-01-24T09:34:03,42.805,6.029,-0.047,0.002,-0.003,111.0,112.0,107.0,13.4,1505.3,324.2,-0.7,1.9,2470.418,13.33,0.047,272.4
2021-01-24T09:37:03,42.805,6.029,-0.021,-0.006,-0.016,112.0,112.0,106.0,13.4,1505.3,327.8,-0.7,1.8,2470.399,13.33,0.021,254.1
2021-01-24T09:40:03,42.805,6.029,-0.022,-0.002,-0.006,111.0,112.0,105.0,13.4,1505.3,323.9,-0.7,1.8,2470.384,13.33,0.022,264.8
2021-01-24T09:43:03,42.805,6.029,-0.069,0.0,-0.036,110.0,112.0,106.0,13.4,1505.3,323.1,-0.7,1.8,2470.381,13.33,0.068,270.0
2021-01-24T09:46:03,42.805,6.029,-0.033,0.002,-0.007,110.0,112.0,107.0,13.3,1505.3,323.8,-0.7,1.8,2470.353,13.33,0.033,273.5
2021-01-24T09:49:03,42.805,6.029,-0.024,0.009,-0.01,109.0,112.0,106.0,13.3,1505.4,326.8,-0.7,1.8,2470.353,13.34,0.025,290.6
2021-01-24T09:52:03,42.805,6.029,-0.007,-0.002,-0.012,111.0,111.0,106.0,13.3,1505.4,324.7,-0.8,1.8,2470.415,13.34,0.007,254.1
2021-01-24T09:55:03,42.805,6.029,-0.007,0.004,0.014,111.0,113.0,106.0,13.4,1505.4,324.7,-0.7,1.8,2470.378,13.34,0.008,299.7